When you browse on this site, cookies collect data to enhance your experience and personalize the content and advertising you see.
Visit our Privacy Policy to learn more. By continuing to use the site, you agree to this use of cookies and data.
  • In Hungary
  • List of Countries
  • For 7 days
  • Water Temperature
  • Weather Map
  • News
  • Weather Widgets
  • user-avatar
    Login

    Hourly Weather Anchorage

    Today, 13 November, Wednesday

    Time Temperature Precipitation Wind Pressure Humidity
    00:00 +2°C° 0 mm 3 mps 747 mmHg 74%
    01:00 +1°C° 0 mm 4 mps 747 mmHg 73%
    02:00 +1°C° 0 mm 4 mps 747 mmHg 73%
    03:00 0°C° 0 mm 4 mps 746 mmHg 72%
    04:00 0°C° 0 mm 4 mps 746 mmHg 71%
    05:00 0°C° 0 mm 5 mps 745 mmHg 69%
    06:00 0°C° 0 mm 5 mps 745 mmHg 71%
    07:00 +1°C° 0 mm 5 mps 744 mmHg 72%
    08:00 +1°C° 0 mm 5 mps 744 mmHg 73%
    09:00 +1°C° 0 mm 5 mps 743 mmHg 73%
    10:00 +1°C° 0 mm 4 mps 743 mmHg 74%
    11:00 +3°C° 0 mm 4 mps 742 mmHg 75%
    12:00 +1°C° 0 mm 4 mps 741 mmHg 75%
    13:00 +1°C° 0 mm 5 mps 740 mmHg 75%
    14:00 +1°C° 0 mm 5 mps 740 mmHg 75%
    15:00 +1°C° 0 mm 5 mps 739 mmHg 77%
    16:00 +1°C° 0 mm 5 mps 738 mmHg 79%
    17:00 +1°C° 0 mm 5 mps 738 mmHg 81%
    18:00 +1°C° 0 mm 5 mps 737 mmHg 81%
    19:00 +1°C° 0 mm 5 mps 737 mmHg 82%
    20:00 +1°C° 0 mm 5 mps 737 mmHg 83%
    21:00 +1°C° 0.1 mm 5 mps 736 mmHg 83%
    22:00 +1°C° 0.1 mm 5 mps 736 mmHg 84%
    23:00 +1°C° 0.1 mm 5 mps 735 mmHg 84%

    Tomorrow, 14 November, Thursday

    Time Temperature Precipitation Wind Pressure Humidity
    00:00 +1°C° 0.3 mm 5 mps 735 mmHg 84%
    01:00 0°C° 0.3 mm 5 mps 734 mmHg 84%
    02:00 0°C° 0.3 mm 4 mps 734 mmHg 85%
    03:00 0°C° 0.4 mm 4 mps 733 mmHg 85%
    04:00 0°C° 0.4 mm 4 mps 732 mmHg 86%
    05:00 0°C° 0.4 mm 4 mps 732 mmHg 86%
    06:00 +1°C° 0.4 mm 3 mps 732 mmHg 87%
    07:00 0°C° 0.4 mm 3 mps 732 mmHg 87%
    08:00 0°C° 0.4 mm 3 mps 732 mmHg 88%
    09:00 +2°C° 0.6 mm 2 mps 732 mmHg 90%
    10:00 +2°C° 0.6 mm 2 mps 733 mmHg 93%
    11:00 +2°C° 0.6 mm 2 mps 733 mmHg 96%
    12:00 +2°C° 0 mm 2 mps 734 mmHg 94%
    13:00 +2°C° 0 mm 3 mps 734 mmHg 93%
    14:00 +2°C° 0 mm 3 mps 734 mmHg 91%
    15:00 +2°C° 0 mm 3 mps 734 mmHg 92%
    16:00 +1°C° 0 mm 3 mps 735 mmHg 92%
    17:00 0°C° 0 mm 4 mps 735 mmHg 92%
    18:00 0°C° 0 mm 4 mps 735 mmHg 91%
    19:00 0°C° 0 mm 4 mps 735 mmHg 90%
    20:00 0°C° 0 mm 4 mps 736 mmHg 89%
    21:00 0°C° 0 mm 4 mps 736 mmHg 87%
    22:00 0°C° 0 mm 4 mps 736 mmHg 86%
    23:00 0°C° 0 mm 4 mps 736 mmHg 85%

    Day after tomorrow, 15 November, Friday

    Time Temperature Precipitation Wind Pressure Humidity
    00:00 0°C° 0.1 mm 4 mps 735 mmHg 85%
    01:00 0°C° 0.1 mm 4 mps 736 mmHg 85%
    02:00 0°C° 0.1 mm 4 mps 736 mmHg 85%
    03:00 0°C° 0.1 mm 4 mps 736 mmHg 85%
    04:00 0°C° 0.1 mm 4 mps 736 mmHg 85%
    05:00 0°C° 0.1 mm 4 mps 736 mmHg 84%
    06:00 0°C° 0.1 mm 4 mps 736 mmHg 84%
    07:00 0°C° 0.1 mm 4 mps 736 mmHg 84%
    08:00 0°C° 0.1 mm 4 mps 736 mmHg 85%
    09:00 0°C° 0 mm 4 mps 736 mmHg 83%
    10:00 +1°C° 0 mm 4 mps 736 mmHg 82%
    11:00 +1°C° 0 mm 4 mps 736 mmHg 81%
    12:00 +1°C° 0.1 mm 4 mps 736 mmHg 81%
    13:00 +1°C° 0.1 mm 4 mps 735 mmHg 82%
    14:00 +1°C° 0.1 mm 4 mps 735 mmHg 82%
    15:00 +1°C° 0 mm 4 mps 735 mmHg 82%
    16:00 +1°C° 0 mm 4 mps 735 mmHg 83%
    17:00 +2°C° 0 mm 3 mps 735 mmHg 83%
    18:00 +2°C° 0.1 mm 3 mps 736 mmHg 85%
    19:00 +2°C° 0.1 mm 2 mps 737 mmHg 86%
    20:00 +2°C° 0.1 mm 2 mps 737 mmHg 87%
    21:00 +2°C° 0.1 mm 2 mps 738 mmHg 87%
    22:00 +1°C° 0.1 mm 3 mps 739 mmHg 86%
    23:00 +1°C° 0.1 mm 3 mps 739 mmHg 85%

    16 November, Saturday

    Time Temperature Precipitation Wind Pressure Humidity
    00:00 +1°C° 0 mm 3 mps 739 mmHg 85%
    01:00 +1°C° 0 mm 3 mps 739 mmHg 84%
    02:00 0°C° 0 mm 3 mps 739 mmHg 84%
    03:00 0°C° 0 mm 3 mps 739 mmHg 83%
    04:00 0°C° 0 mm 3 mps 738 mmHg 82%
    05:00 +1°C° 0 mm 2 mps 738 mmHg 81%
    06:00 0°C° 0 mm 3 mps 737 mmHg 82%
    07:00 0°C° 0 mm 3 mps 737 mmHg 83%
    08:00 0°C° 0 mm 3 mps 737 mmHg 84%
    09:00 0°C° 0 mm 3 mps 737 mmHg 83%
    10:00 +1°C° 0 mm 3 mps 736 mmHg 82%
    11:00 +2°C° 0 mm 2 mps 736 mmHg 81%
    12:00 +2°C° 0 mm 2 mps 736 mmHg 82%
    13:00 +2°C° 0 mm 2 mps 735 mmHg 84%
    14:00 +1°C° 0 mm 2 mps 734 mmHg 85%
    15:00 +1°C° 0.3 mm 2 mps 734 mmHg 88%
    16:00 -1°C° 0.3 mm 2 mps 734 mmHg 91%
    17:00 -1°C° 0.3 mm 2 mps 734 mmHg 94%
    18:00 -1°C° 1 mm 2 mps 734 mmHg 95%
    19:00 -1°C° 1 mm 2 mps 734 mmHg 96%
    20:00 -1°C° 1 mm 2 mps 734 mmHg 97%
    21:00 -1°C° 1.1 mm 3 mps 735 mmHg 96%
    22:00 -1°C° 1.1 mm 3 mps 735 mmHg 96%
    23:00 -1°C° 1.1 mm 4 mps 736 mmHg 96%

    17 November, Sunday

    Time Temperature Precipitation Wind Pressure Humidity
    00:00 -1°C° 0.6 mm 4 mps 736 mmHg 95%
    01:00 -1°C° 0.6 mm 4 mps 737 mmHg 95%
    02:00 -2°C° 0.6 mm 4 mps 737 mmHg 94%
    03:00 -1°C° 0.2 mm 3 mps 738 mmHg 92%
    04:00 -1°C° 0.2 mm 3 mps 738 mmHg 89%
    05:00 -1°C° 0.2 mm 2 mps 739 mmHg 87%
    06:00 -1°C° 0 mm 2 mps 740 mmHg 86%
    07:00 -1°C° 0 mm 2 mps 740 mmHg 84%
    08:00 -2°C° 0 mm 2 mps 741 mmHg 83%
    09:00 -1°C° 0 mm 2 mps 742 mmHg 82%
    10:00 +1°C° 0 mm 1 mps 742 mmHg 81%
    11:00 +2°C° 0 mm 1 mps 743 mmHg 80%
    12:00 +1°C° 0 mm 1 mps 744 mmHg 80%
    13:00 +1°C° 0 mm 1 mps 744 mmHg 81%
    14:00 +1°C° 0 mm 1 mps 745 mmHg 81%
    15:00 +1°C° 0 mm 1 mps 745 mmHg 82%
    16:00 0°C° 0 mm 1 mps 746 mmHg 83%
    17:00 -2°C° 0 mm 2 mps 746 mmHg 83%
    18:00 0°C° 0 mm 1 mps 747 mmHg 85%
    19:00 0°C° 0 mm 1 mps 747 mmHg 86%
    20:00 0°C° 0 mm 1 mps 748 mmHg 87%
    21:00 -1°C° 0 mm 1 mps 749 mmHg 88%
    22:00 -1°C° 0 mm 1 mps 749 mmHg 89%
    23:00 -1°C° 0 mm 1 mps 750 mmHg 90%

    18 November, Monday

    Time Temperature Precipitation Wind Pressure Humidity
    00:00 -1°C° 0 mm 1 mps 750 mmHg 88%
    01:00 -1°C° 0 mm 1 mps 751 mmHg 87%
    02:00 -1°C° 0 mm 1 mps 752 mmHg 86%
    03:00 -1°C° 0 mm 1 mps 752 mmHg 86%
    04:00 -1°C° 0 mm 1 mps 753 mmHg 87%
    05:00 -1°C° 0 mm 1 mps 753 mmHg 87%
    06:00 -1°C° 0 mm 1 mps 754 mmHg 87%
    07:00 -1°C° 0 mm 1 mps 754 mmHg 87%
    08:00 -1°C° 0 mm 1 mps 755 mmHg 87%
    09:00 -1°C° 0 mm 1 mps 755 mmHg 85%
    10:00 0°C° 0 mm 1 mps 756 mmHg 83%
    11:00 +1°C° 0 mm 1 mps 756 mmHg 80%
    12:00 +1°C° 0 mm 1 mps 757 mmHg 80%
    13:00 -1°C° 0 mm 2 mps 757 mmHg 80%
    14:00 -2°C° 0 mm 2 mps 758 mmHg 80%
    15:00 -2°C° 0 mm 2 mps 758 mmHg 79%
    16:00 -2°C° 0 mm 3 mps 758 mmHg 79%
    17:00 -2°C° 0 mm 3 mps 759 mmHg 78%
    18:00 -4°C° 0 mm 3 mps 759 mmHg 78%
    19:00 -4°C° 0 mm 3 mps 759 mmHg 79%
    20:00 -4°C° 0 mm 3 mps 760 mmHg 79%
    21:00 -4°C° 0 mm 3 mps 760 mmHg 81%
    22:00 -4°C° 0 mm 4 mps 760 mmHg 82%
    23:00 -4°C° 0 mm 4 mps 760 mmHg 84%
    Show more